GGSE 3 DEB, 44043

Orbit data source: Space-Track

GGSE 3 DEB, 44043 is space debris in LEO originally from a launch on Tue, 09 Mar 1965 UTC launched from the Air Force Western Test Range (AFWTR). Debris objects in space refer to the collection of defunct objects orbiting the Earth. Examples of debris include non-operational satellites, rocket bodies, and fragments generated from explosions, collisions, or faulty payload assembly.

Loading next visibility...
Identifier
44043, 1965-016L
Orbit
LEO
Country
Flag of USUS
Related business
Manufacturer
Unknown
Mission
Spacecraft
Bus & Motor
Unknown
Mass
Unknown
Launch date (UTC)
1965-03-09 (61 years ago)
Launch vehicle
Unknown
Launch site
Air Force Western Test Range (AFWTR)
Object type
Payload
Rocket body
Debris
Shape & HBR
Unknown shape, 0.1 m
Radar Cross Section
Medium (>0.1 m² and <1 m²)

Expand to show TLE details & history
Last TLE update: 23 hours ago

TLE from 23 hours ago
0 GGSE 3 DEB
1 44043U 65016L   26208.42618681  .00000630  00000-0  42926-3 0  9992
2 44043  70.0733 215.8020 0020751 256.3580 103.5220 14.04293694381400
Epoch: 2026-07-27T10:13Z
TLE epoch observation values (Epoch: 2026-07-27T10:13:42.540Z)
Latitude
0.00001°
Longitude
117.26482°
Altitude
884.842 km
Speed
7.408 km/s
True Right ascension
14h 23m 12s
True Declination
0° 00' 00"
Sunlit
Object was in daylight at epoch
Visualization orbit readout
Latitude
Unknown
Longitude
Unknown
Altitude
Unknown
Speed
Unknown
Apparent Right ascension
Unknown
Apparent Declination
Unknown
Sunlit
N/A
Visualization observer readout
Local Sidereal Time
22:39:39
Azimuth
Unknown
Elevation
Unknown
Doppler factor
Unknown
Orbital elements
Apogee altitude
892.048 km
Perigee altitude
861.937 km
Semi-major axis
7,255.13 km
Eccentricity
0.00208
Inclination
70.0733°
RAAN
215.802°
Arg. of periapsis
256.358°
True anomaly
103.75306°
Mean anomaly
103.522°
Eccentric anomaly
103.63754°
Mean motion
3.51217 °/min
Orbital period
102.5 mins
BSTAR
0.00042926
Loading maneuver chart data...
Computing Atmospheric mass density...
Loading historical data...
Loading historical data...
Loading historical data...
Loading historical data...
Loading historical data...
Loading historical data...
Loading historical data...

Documentation

Showing up to 5 results
|